Dewpoint
46 46 46 46 45 45 45 45 45 45 45 45 46 46 47 47 47 49 50 51 52 52 53 53 53 53 53 54 55 55 54 55 54 54 54 54 53 53 53 53 53 54
46 45 45 45 45 44 44 45 45 45 45 46 46 46 46 47 48 49 51 52 52 53 53 54 54 54 54 54 54 54 53 53 53 53 53 52 53 53 53 52 53 53
45 44 44 44 44 44 44 45 46 46 45 45 45 46 48 48 50 50 52 52 53 54 54 54 54 54 54 54 53 53 53 52 52 52 52 52 53 52 52 53 53 53
45 45 44 44 44 44 45 46 45 45 44 46 46 47 48 50 52 52 52 52 53 53 53 53 53 54 53 53 52 52 52 52 52 51 51 52 52 52 52 52 52 53
45 45 45 45 44 43 44 45 45 45 46 46 46 48 49 51 52 52 53 54 53 52 52 52 52 52 52 52 52 51 51 51 50 51 51 51 51 51 52 52 52 52
44 45 45 45 44 44 45 45 45 45 45 45 47 48 50 52 52 53 53 52 51 51 51 51 51 52 53 53 52 51 51 51 51 50 50 50 51 51 52 52 52 52
44 44 44 44 44 44 44 44 44 45 45 46 46 49 50 51 52 53 54 52 51 51 51 51 51 52 53 53 52 51 50 50 50 50 50 50 50 51 51 52 52 52
44 43 44 44 44 44 44 44 44 44 45 45 46 46 50 51 51 52 54 53 52 50 51 51 51 52 52 52 52 51 51 50 50 50 50 49 50 50 51 52 51 51
43 43 43 43 43 43 43 43 43 43 44 45 45 47 50 51 51 52 53 54 52 50 50 51 52 51 51 52 51 51 50 50 50 50 50 50 50 50 50 51 51 51
42 42 42 42 43 42 42 42 43 43 44 45 46 48 50 50 51 51 52 53 52 51 51 51 51 51 51 51 51 51 50 50 50 50 50 50 50 50 50 50 50 50
42 42 42 42 42 42 42 42 42 43 43 44 47 49 50 50 50 51 51 51 53 53 52 52 52 52 51 51 51 51 51 50 50 50 50 50 50 49 47 50 49 49
42 41 41 41 42 42 42 42 42 42 43 43 46 49 50 50 50 50 51 51 51 52 52 52 51 51 51 50 50 50 50 50 50 50 49 49 49 49 49 49 49 50
41 41 41 41 42 42 42 42 42 42 42 43 46 47 48 49 49 49 50 51 51 51 51 51 51 51 51 51 50 50 50 50 49 49 49 49 49 48 49 49 49 49
41 41 41 42 42 42 42 42 41 41 41 41 44 48 48 48 48 49 49 49 51 50 51 51 51 50 51 51 50 50 50 49 49 48 48 48 48 48 48 48 48 48
40 40 41 41 41 41 41 41 41 40 40 40 40 43 47 48 48 48 48 48 48 49 49 49 50 50 50 50 50 50 50 49 49 49 48 48 48 48 48 48 48 48
39 40 40 40 41 41 41 40 39 39 40 39 39 40 44 45 46 46 46 45 46 46 48 49 49 49 46 45 46 50 50 50 49 49 48 48 47 47 47 47 48 48
38 39 39 39 40 40 38 38 39 38 37 38 37 38 39 40 44 44 44 44 44 45 45 47 48 48 43 45 46 46 49 49 49 48 48 48 47 47 47 46 47 47
37 38 38 38 38 38 38 37 36 36 36 37 36 36 35 37 40 41 41 42 43 42 43 43 44 43 43 44 45 45 45 48 49 48 48 48 47 47 47 45 45 46
36 37 37 37 38 37 37 36 37 37 37 38 37 36 35 38 40 40 39 39 40 40 40 40 40 41 43 44 44 45 45 46 49 48 48 47 46 46 44 44 42 43
35 36 36 36 36 37 36 36 36 37 37 38 38 37 38 38 38 38 37 38 38 38 38 38 38 39 42 43 43 44 44 46 47 47 47 46 45 45 44 43 43 43
35 35 35 35 36 36 36 36 36 35 36 38 38 38 38 38 38 38 39 38 38 37 37 37 40 39 41 42 43 43 44 44 45 45 44 43 43 42 42 42 42 43
34 34 34 35 35 36 36 36 35 35 35 36 37 37 37 37 37 37 38 38 38 38 37 37 38 39 40 41 42 43 43 43 43 42 41 40 39 38 39 40 40 41
34 34 34 34 35 36 36 36 35 35 34 35 36 37 37 37 37 38 38 39 38 38 38 37 36 37 39 40 41 42 41 41 40 39 39 38 37 37 38 38 39 39
33 33 33 34 34 35 35 36 35 35 35 35 36 36 36 37 37 37 38 38 38 38 38 38 37 36 38 39 40 40 40 40 39 38 37 37 37 37 38 38 38 36
32 33 33 33 34 34 34 35 35 36 35 35 34 35 36 37 37 37 37 37 37 38 36 37 37 36 37 39 40 40 39 39 39 38 37 36 37 37 36 37 37 36
31 32 32 33 33 33 33 34 34 34 35 35 34 35 36 37 37 37 37 37 37 37 37 38 37 36 36 38 39 39 39 39 39 38 37 36 36 37 36 36 36 37